Vorticity
4 4 3 4 5 4 5 5 4 4 5 5 4 2 5 3 2 5 5 7 6 6 6 7 7 6 6 6 5 6 6 6 7 7 7 8 8 8 8 8 8 7 7
4 4 4 3 4 5 5 5 5 5 5 5 5 4 4 3 5 8 7 7 6 6 7 7 8 8 6 6 5 5 5 4 5 5 5 5 6 6 7 7 8 8 8
5 5 4 4 5 5 6 5 6 6 5 4 6 5 3 4 8 9 8 7 6 6 6 7 7 6 6 6 4 1 4 4 4 4 4 5 5 6 6 7 7 7 7
8 6 4 5 6 6 7 6 6 6 5 5 4 3 5 7 10 8 8 7 8 5 5 7 6 6 6 2 -4 6 9 4 4 3 4 5 6 7 7 7 7 7 8
2 6 7 8 7 7 8 6 6 6 6 3 5 5 6 7 7 7 8 10 6 4 5 7 6 3 4 -2 7 10 2 3 4 4 4 4 5 5 7 8 8 8 7
3 7 9 8 7 9 8 6 6 6 3 4 5 6 5 6 6 7 8 8 3 4 5 7 5 6 4 7 4 4 3 3 4 3 3 3 3 4 5 6 8 8 7
11 9 8 4 6 10 8 5 5 6 2 4 4 5 7 5 4 7 8 8 4 4 5 6 7 6 6 6 6 4 3 3 3 3 3 3 2 3 4 5 7 8 8
9 8 9 9 7 5 4 4 4 8 3 4 5 5 5 6 4 6 7 7 4 4 3 6 6 7 7 5 5 4 5 4 4 3 3 3 3 2 2 5 7 8 7
7 7 9 6 6 3 6 6 5 6 5 5 5 4 5 7 8 5 5 6 6 5 4 4 3 2 6 2 3 5 7 6 5 4 4 3 3 3 3 5 7 8 7
1 9 5 6 5 5 11 9 5 6 3 1 6 4 6 7 8 6 4 3 -1 2 7 4 8 5 5 8 4 2 3 8 7 6 5 5 5 3 7 5 7 8 8
0 -3 3 2 4 7 8 9 8 9 6 5 6 6 5 5 4 10 8 2 3 9 2 -0 -3 5 -1 -1 7 3 4 7 4 6 4 3 4 10 6 5 7 8 7
5 2 0 1 2 2 3 4 4 9 12 3 5 4 4 4 11 13 6 -6 13 10 -3 5 3 13 10 -0 3 6 8 4 3 4 7 6 10 4 5 8 8 8 7
17 19 17 16 15 12 13 11 8 7 13 10 11 9 6 6 4 3 4 7 4 -1 -0 5 4 27 -3 9 4 -5 5 13 1 2 12 9 4 10 8 8 7 7 7
2 1 2 5 14 12 9 12 11 9 4 4 4 8 9 6 3 7 1 -1 3 4 -3 11 19 2 6 16 15 4 4 10 8 9 7 10 9 9 8 7 7 7 7
15 16 14 10 8 13 9 8 14 11 8 6 7 11 8 8 8 6 6 41 8 5 7 12 5 15 6 7 10 13 3 13 10 7 9 11 6 7 8 7 7 6 6
8 9 11 16 17 10 2 -1 5 15 14 11 5 8 20 1 6 14 8 2 11 2 10 16 -6 27 17 13 9 10 9 7 8 11 5 8 8 7 6 5 6 6 7
7 7 11 11 9 11 15 16 12 7 7 5 7 18 10 37 2 5 9 3 4 -0 15 26 20 18 10 12 12 11 10 8 4 3 9 7 6 6 7 8 9 10 11
8 6 5 8 9 9 3 8 10 9 9 11 12 7 2 15 -4 9 9 5 15 9 27 10 16 9 12 9 15 11 9 7 9 9 8 8 9 10 12 16 18 20 22
18 22 21 19 13 12 4 5 14 12 13 13 11 14 11 12 6 1 6 6 23 27 17 11 8 12 10 8 12 8 7 8 8 9 9 12 16 19 23 22 21 20 17
17 19 24 26 19 16 13 14 19 16 10 8 6 18 -0 11 7 20 17 24 14 12 8 8 8 8 5 9 7 6 8 11 10 14 16 21 21 21 16 12 9 10 10
7 5 12 11 9 13 8 20 19 17 12 7 0 7 -10 13 21 29 15 10 8 8 5 8 8 8 9 9 11 11 10 11 18 27 22 20 14 10 10 10 13 15 16
16 23 27 26 11 37 19 43 14 2 18 4 3 25 19 24 10 5 9 7 8 9 7 7 6 8 9 10 8 14 19 23 26 16 11 9 10 10 14 20 16 12 11
-3 2 19 -14 8 27 1 17 31 -2 19 11 17 33 14 11 10 5 3 6 6 5 5 7 11 13 14 16 21 22 20 15 11 11 9 9 11 17 17 17 14 13 12
35 31 44 43 26 12 23 17 22 21 24 19 11 9 6 6 6 5 5 6 7 10 14 15 15 17 20 20 18 14 10 9 7 12 11 8 15 13 16 18 16 14 11
27 16 7 17 15 13 13 12 13 14 7 2 4 6 5 4 4 5 5 8 13 18 18 20 22 21 20 12 9 9 7 8 10 14 10 8 13 9 13 13 14 14 13
16 12 9 7 9 5 8 -0 0 5 6 5 5 4 3 4 5 9 15 21 26 25 24 19 16 9 8 9 8 7 9 10 10 12 9 8 11 11 16 11 13 15 17
Height
3173 3173 3173 3173 3173 3174 3174 3174 3174 3173 3173 3172 3171 3170 3169 3168 3167 3166 3165 3164 3163 3162 3162 3161 3160 3159 3158 3158 3157 3156 3155 3154 3153 3153 3152 3151 3150 3149 3148 3148 3147 3147 3146
3169 3169 3169 3169 3170 3170 3170 3171 3170 3170 3169 3169 3168 3167 3166 3165 3163 3162 3161 3161 3160 3159 3158 3158 3157 3157 3156 3155 3155 3154 3153 3152 3151 3150 3149 3149 3148 3146 3145 3144 3143 3143 3142
3164 3164 3165 3165 3165 3166 3166 3166 3166 3166 3165 3165 3164 3163 3162 3161 3160 3158 3157 3156 3156 3156 3155 3155 3154 3153 3153 3152 3151 3150 3149 3149 3147 3146 3145 3144 3144 3143 3142 3141 3140 3138 3137
3160 3160 3160 3160 3160 3160 3161 3161 3161 3161 3161 3160 3160 3159 3158 3157 3156 3155 3154 3153 3152 3152 3151 3151 3150 3149 3149 3148 3147 3147 3146 3145 3144 3142 3141 3140 3139 3138 3137 3136 3135 3134 3133
3155 3154 3155 3155 3155 3155 3155 3156 3156 3157 3156 3155 3155 3155 3154 3153 3152 3151 3149 3149 3148 3147 3147 3147 3146 3145 3145 3144 3143 3142 3141 3140 3139 3138 3136 3135 3134 3132 3131 3130 3129 3128 3127
3150 3149 3149 3149 3149 3149 3150 3150 3151 3152 3151 3151 3150 3150 3149 3148 3147 3146 3145 3144 3144 3143 3142 3142 3141 3141 3140 3139 3138 3137 3136 3134 3133 3132 3131 3130 3128 3126 3124 3123 3122 3121 3120
3142 3143 3143 3142 3142 3143 3144 3145 3145 3145 3145 3145 3144 3144 3144 3143 3142 3141 3140 3140 3139 3138 3138 3137 3136 3136 3134 3133 3132 3131 3130 3128 3127 3126 3124 3123 3122 3120 3118 3116 3114 3113 3112
3135 3136 3136 3137 3136 3137 3138 3139 3139 3139 3139 3139 3139 3138 3137 3138 3137 3136 3135 3134 3134 3133 3133 3132 3131 3130 3128 3127 3125 3124 3123 3122 3120 3119 3117 3115 3113 3112 3110 3108 3106 3104 3103
3128 3129 3129 3130 3129 3130 3131 3132 3132 3132 3132 3132 3132 3132 3129 3130 3132 3130 3129 3128 3128 3127 3126 3126 3124 3123 3121 3120 3118 3116 3115 3114 3112 3111 3109 3107 3105 3103 3101 3100 3098 3096 3094
3120 3121 3121 3121 3122 3122 3123 3125 3125 3125 3124 3125 3124 3124 3123 3123 3123 3123 3123 3122 3121 3119 3119 3118 3117 3116 3114 3112 3110 3108 3107 3105 3103 3102 3100 3098 3096 3094 3092 3089 3088 3086 3084
3111 3112 3111 3112 3113 3114 3115 3115 3116 3116 3117 3116 3118 3116 3115 3115 3115 3115 3114 3114 3113 3112 3110 3108 3107 3106 3106 3104 3102 3100 3098 3096 3094 3092 3090 3088 3086 3083 3081 3078 3077 3075 3073
3099 3101 3102 3102 3103 3104 3106 3106 3107 3107 3108 3107 3108 3108 3107 3107 3107 3106 3105 3103 3103 3102 3101 3100 3099 3097 3095 3093 3091 3090 3089 3086 3084 3082 3080 3077 3075 3072 3070 3067 3065 3063 3060
3087 3091 3092 3091 3092 3093 3094 3095 3096 3097 3098 3098 3100 3100 3099 3098 3097 3097 3096 3094 3094 3093 3091 3091 3089 3087 3085 3083 3081 3079 3078 3075 3073 3071 3068 3065 3063 3060 3058 3055 3052 3050 3048
3078 3079 3079 3080 3081 3082 3083 3084 3085 3087 3089 3090 3090 3089 3090 3089 3089 3088 3087 3087 3087 3084 3081 3081 3079 3076 3073 3071 3069 3068 3066 3063 3061 3058 3056 3053 3050 3047 3044 3041 3039 3037 3034
3068 3069 3069 3071 3072 3072 3073 3073 3074 3077 3078 3079 3080 3078 3074 3076 3078 3079 3077 3076 3072 3073 3071 3068 3066 3063 3060 3060 3057 3057 3053 3051 3048 3047 3045 3040 3036 3033 3031 3028 3025 3023 3020
3061 3061 3061 3061 3062 3063 3064 3065 3065 3065 3067 3068 3068 3068 3066 3067 3068 3068 3068 3065 3065 3063 3059 3056 3056 3052 3051 3048 3048 3044 3040 3038 3036 3034 3032 3027 3023 3020 3016 3012 3010 3006 3002
3051 3051 3052 3052 3052 3052 3053 3053 3054 3056 3057 3057 3057 3057 3058 3058 3052 3058 3059 3057 3056 3053 3048 3045 3044 3041 3040 3038 3036 3033 3030 3025 3023 3021 3017 3012 3008 3004 3000 2997 2993 2988 2984
3041 3041 3041 3042 3043 3044 3044 3044 3044 3045 3047 3049 3050 3052 3052 3052 3051 3050 3049 3047 3044 3041 3039 3036 3034 3032 3030 3026 3025 3022 3019 3015 3011 3009 3003 2998 2993 2990 2987 2982 2977 2973 2969
3031 3030 3030 3030 3031 3033 3034 3035 3035 3037 3039 3041 3042 3043 3043 3043 3042 3040 3038 3037 3034 3032 3028 3026 3025 3023 3019 3018 3015 3010 3006 3004 3001 2998 2991 2985 2981 2977 2972 2967 2964 2961 2957
3022 3020 3020 3019 3021 3023 3024 3026 3027 3029 3032 3033 3035 3035 3034 3035 3033 3030 3027 3026 3025 3023 3021 3018 3016 3012 3008 3006 3002 2999 2997 2993 2988 2984 2977 2972 2969 2965 2961 2957 2954 2950 2946
3015 3013 3014 3013 3013 3015 3016 3017 3019 3022 3025 3028 3028 3029 3027 3025 3023 3022 3020 3019 3016 3015 3011 3008 3004 3000 2998 2995 2991 2989 2984 2978 2976 2972 2965 2965 2959 2956 2952 2948 2944 2940 2934
3008 3006 3005 3003 3004 3005 3007 3012 3014 3016 3018 3019 3020 3018 3018 3016 3015 3014 3013 3011 3010 3005 3002 2998 2995 2992 2987 2983 2979 2975 2971 2967 2966 2962 2956 2956 2949 2947 2943 2939 2935 2929 2923
3002 3001 3000 3000 2997 3001 3003 3006 3004 3005 3011 3011 3012 3012 3012 3011 3009 3007 3004 3002 2999 2995 2993 2989 2985 2981 2977 2972 2968 2966 2962 2959 2957 2953 2946 2944 2942 2937 2933 2931 2926 2920 2914
2999 2997 2998 2997 2998 2998 3001 3001 3003 3005 3005 3007 3008 3008 3007 3005 3001 2999 2997 2995 2991 2987 2983 2978 2974 2970 2967 2964 2961 2960 2957 2953 2950 2947 2940 2934 2933 2927 2924 2922 2918 2912 2906
3000 3000 3000 3000 3000 3001 3001 3003 3004 3005 3005 3004 3003 3001 3001 2997 2994 2993 2990 2986 2981 2976 2972 2969 2966 2965 2962 2960 2957 2954 2950 2946 2942 2941 2933 2927 2926 2917 2917 2914 2910 2904 2899
3002 3003 3003 3003 3003 3004 3004 3005 3004 3002 3002 3001 3000 2997 2993 2989 2985 2981 2978 2975 2972 2969 2967 2965 2963 2961 2958 2955 2951 2947 2943 2939 2934 2931 2923 2918 2919 2909 2903 2907 2901 2894 2889